Location: Laupheim
(48.2265°N, 9.8829°E)
Time: 11:03:53
(UTC+01:00)

N. Korean satellite - Visible Passes

Search period start: 24 February 2018 00:00
Search period end: 06 March 2018 00:00
Orbit: 459 x 514 km, 97.2° (Epoch: 23 February)

Date Brightness Start Highest point End Pass type
(mag) Time Alt. Az. Time Alt. Az. Time Alt. Az.
24 Feb 8.4 06:41:23 10° NNE 06:44:53 40° E 06:48:24 10° S visible
24 Feb 9.3 18:55:02 10° SSW 18:57:52 23° W 19:00:45 10° NW visible
25 Feb 9.7 06:18:04 10° NE 06:21:01 22° E 06:23:58 10° SSE visible
25 Feb 7.9 18:30:39 10° S 18:33:59 43° W 18:37:24 10° NNW visible
26 Feb 10.4 05:55:23 10° ENE 05:57:03 13° E 05:58:44 10° ESE visible
27 Feb 10.1 19:18:28 10° WSW 19:20:16 13° W 19:22:05 10° WNW visible
28 Feb 9.3 18:53:24 10° SSW 18:56:18 24° W 18:59:16 10° NW visible
01 Mar 9.7 06:16:32 10° NE 06:19:29 22° E 06:22:25 10° SE visible
02 Mar 10.5 05:53:54 10° ENE 05:55:30 12° E 05:57:07 10° ESE visible
03 Mar 10.1 19:16:44 10° WSW 19:18:40 14° W 19:20:38 10° NW visible
04 Mar 9.3 18:51:43 10° SSW 18:54:42 25° W 18:57:44 10° NW visible
05 Mar 9.8 06:14:58 10° NE 06:17:54 21° E 06:20:49 10° SE visible
